Time,TemperatureF,DewpointF,PressureIn,WindDirection,WindDirectionDegrees,WindSpeedMPH,WindSpeedGustMPH,Humidity,HourlyPrecipIn,Conditions,Clouds,dailyrainin,SoftwareType,DateUTC
2013-04-14 00:00:00,43.5,37.0,30.02,North,-999,-999.0,-999.0,78,0.00,,,0.14,weatherlink.com 1.10,2013-04-14 07:00:00,
2013-04-14 00:15:00,43.3,38.0,30.03,North,-999,-999.0,-999.0,80,0.00,,,0.00,weatherlink.com 1.10,2013-04-14 07:15:00,
2013-04-14 00:30:00,43.0,37.0,30.03,North,-999,-999.0,-999.0,80,0.00,,,0.00,weatherlink.com 1.10,2013-04-14 07:30:00,
2013-04-14 00:46:00,42.9,37.0,30.03,North,-999,-999.0,-999.0,80,0.00,,,0.00,weatherlink.com 1.10,2013-04-14 07:46:00,
2013-04-14 01:01:00,42.9,37.0,30.04,North,-999,-999.0,-999.0,79,0.00,,,0.00,weatherlink.com 1.10,2013-04-14 08:01:00,
2013-04-14 01:16:00,42.9,36.0,30.04,North,-999,-999.0,-999.0,78,0.00,,,0.00,weatherlink.com 1.10,2013-04-14 08:16:00,
2013-04-14 01:31:00,42.8,37.0,30.04,North,-999,-999.0,-999.0,79,0.00,,,0.00,weatherlink.com 1.10,2013-04-14 08:31:00,
2013-04-14 01:46:00,42.7,37.0,30.04,North,-999,-999.0,-999.0,80,0.00,,,0.00,weatherlink.com 1.10,2013-04-14 08:46:00,
2013-04-14 02:01:00,42.3,37.0,30.03,North,-999,-999.0,-999.0,82,0.00,,,0.00,weatherlink.com 1.10,2013-04-14 09:01:00,
2013-04-14 02:31:00,41.8,37.0,30.03,North,-999,-999.0,-999.0,82,0.01,,,0.01,weatherlink.com 1.10,2013-04-14 09:31:00,
2013-04-14 02:46:00,41.9,37.0,30.03,North,-999,-999.0,-999.0,81,0.01,,,0.01,weatherlink.com 1.10,2013-04-14 09:46:00,
2013-04-14 03:01:00,42.0,37.0,30.03,North,-999,-999.0,-999.0,81,0.01,,,0.01,weatherlink.com 1.10,2013-04-14 10:01:00,
2013-04-14 03:16:00,42.1,36.0,30.03,North,-999,-999.0,-999.0,80,0.00,,,0.01,weatherlink.com 1.10,2013-04-14 10:16:00,
2013-04-14 03:31:00,41.9,37.0,30.02,North,-999,-999.0,-999.0,82,0.00,,,0.01,weatherlink.com 1.10,2013-04-14 10:31:00,
2013-04-14 03:46:00,41.8,37.0,30.02,North,-999,-999.0,-999.0,83,0.00,,,0.01,weatherlink.com 1.10,2013-04-14 10:46:00,
2013-04-14 04:01:00,41.3,36.0,30.02,North,-999,-999.0,-999.0,81,0.00,,,0.01,weatherlink.com 1.10,2013-04-14 11:01:00,
2013-04-14 04:17:00,41.4,36.0,30.02,North,-999,-999.0,-999.0,80,0.00,,,0.01,weatherlink.com 1.10,2013-04-14 11:17:00,
2013-04-14 04:32:00,41.7,36.0,30.01,North,-999,-999.0,-999.0,79,0.00,,,0.01,weatherlink.com 1.10,2013-04-14 11:32:00,
2013-04-14 04:47:00,42.0,36.0,30.02,North,-999,-999.0,-999.0,80,0.00,,,0.01,weatherlink.com 1.10,2013-04-14 11:47:00,
2013-04-14 05:02:00,42.2,36.0,30.01,North,-999,-999.0,-999.0,79,0.00,,,0.01,weatherlink.com 1.10,2013-04-14 12:02:00,
2013-04-14 05:17:00,42.4,36.0,30.01,North,-999,-999.0,-999.0,79,0.00,,,0.01,weatherlink.com 1.10,2013-04-14 12:17:00,
2013-04-14 05:32:00,42.5,37.0,30.01,North,-999,-999.0,-999.0,80,0.00,,,0.01,weatherlink.com 1.10,2013-04-14 12:32:00,
2013-04-14 05:47:00,42.4,37.0,30.01,North,-999,-999.0,-999.0,80,0.00,,,0.01,weatherlink.com 1.10,2013-04-14 12:47:00,
2013-04-14 06:02:00,42.0,37.0,30.01,North,-999,-999.0,-999.0,81,0.00,,,0.01,weatherlink.com 1.10,2013-04-14 13:02:00,
2013-04-14 06:17:00,41.8,36.0,30.01,North,-999,-999.0,-999.0,80,0.00,,,0.01,weatherlink.com 1.10,2013-04-14 13:17:00,
2013-04-14 06:32:00,42.2,35.0,30.02,North,-999,-999.0,-999.0,76,0.00,,,0.01,weatherlink.com 1.10,2013-04-14 13:32:00,
2013-04-14 06:47:00,42.1,37.0,30.02,North,-999,-999.0,-999.0,82,0.00,,,0.01,weatherlink.com 1.10,2013-04-14 13:47:00,
2013-04-14 07:02:00,41.8,37.0,30.02,SSW,208,2.0,9.0,84,0.00,,,0.01,weatherlink.com 1.10,2013-04-14 14:02:00,
2013-04-14 07:17:00,42.0,37.0,30.02,SW,234,6.0,8.0,83,0.00,,,0.01,weatherlink.com 1.10,2013-04-14 14:17:00,
2013-04-14 07:32:00,42.5,37.0,30.02,SW,225,5.0,8.0,82,0.00,,,0.01,weatherlink.com 1.10,2013-04-14 14:32:00,
2013-04-14 07:47:00,42.5,37.0,30.02,WSW,237,1.0,7.0,81,0.00,,,0.01,weatherlink.com 1.10,2013-04-14 14:47:00,
2013-04-14 08:02:00,42.3,37.0,30.01,WSW,250,4.0,11.0,81,0.00,,,0.01,weatherlink.com 1.10,2013-04-14 15:02:00,
2013-04-14 08:17:00,42.4,37.0,30.01,WSW,242,3.0,11.0,81,0.00,,,0.01,weatherlink.com 1.10,2013-04-14 15:17:00,
2013-04-14 08:32:00,42.9,38.0,30.01,SSW,200,3.0,10.0,82,0.00,,,0.01,weatherlink.com 1.10,2013-04-14 15:32:00,
2013-04-14 08:47:00,42.9,37.0,30.01,WSW,249,7.0,11.0,81,0.00,,,0.01,weatherlink.com 1.10,2013-04-14 15:47:00,
2013-04-14 09:02:00,43.7,39.0,30.00,SSW,199,5.0,10.0,83,0.00,,,0.01,weatherlink.com 1.10,2013-04-14 16:02:00,
2013-04-14 09:17:00,44.0,39.0,30.00,SSW,194,9.0,10.0,82,0.00,,,0.01,weatherlink.com 1.10,2013-04-14 16:17:00,
2013-04-14 09:33:00,45.6,40.0,30.00,SSW,205,7.0,9.0,81,0.00,,,0.01,weatherlink.com 1.10,2013-04-14 16:33:00,
2013-04-14 09:48:00,45.9,39.0,30.00,SW,215,4.0,8.0,77,0.00,,,0.01,weatherlink.com 1.10,2013-04-14 16:48:00,
2013-04-14 10:03:00,45.5,39.0,30.00,SSW,197,5.0,8.0,78,0.00,,,0.01,weatherlink.com 1.10,2013-04-14 17:03:00,
2013-04-14 10:18:00,45.8,39.0,29.99,SW,223,4.0,7.0,78,0.00,,,0.01,weatherlink.com 1.10,2013-04-14 17:18:00,
2013-04-14 10:33:00,47.0,40.0,29.99,SW,224,7.0,8.0,76,0.00,,,0.01,weatherlink.com 1.10,2013-04-14 17:33:00,
2013-04-14 10:48:00,47.2,40.0,29.99,SW,226,2.0,7.0,75,0.00,,,0.01,weatherlink.com 1.10,2013-04-14 17:48:00,
2013-04-14 11:03:00,48.1,41.0,29.99,South,176,3.0,8.0,77,0.00,,,0.01,weatherlink.com 1.10,2013-04-14 18:03:00,
2013-04-14 11:18:00,48.8,42.0,29.98,SW,232,2.0,11.0,76,0.00,,,0.01,weatherlink.com 1.10,2013-04-14 18:18:00,
2013-04-14 11:33:00,47.6,40.0,29.98,SSW,194,4.0,9.0,76,0.00,,,0.01,weatherlink.com 1.10,2013-04-14 18:33:00,
2013-04-14 11:48:00,50.2,42.0,29.97,SSW,209,4.0,7.0,73,0.00,,,0.01,weatherlink.com 1.10,2013-04-14 18:48:00,
2013-04-14 12:03:00,49.5,40.0,29.97,South,175,8.0,8.0,70,0.00,,,0.01,weatherlink.com 1.10,2013-04-14 19:03:00,
2013-04-14 12:18:00,51.8,41.0,29.96,SSW,194,4.0,10.0,68,0.00,,,0.01,weatherlink.com 1.10,2013-04-14 19:18:00,
2013-04-14 12:33:00,51.4,41.0,29.95,WSW,242,5.0,7.0,67,0.00,,,0.01,weatherlink.com 1.10,2013-04-14 19:33:00,
2013-04-14 12:48:00,53.0,42.0,29.95,NNE,16,5.0,9.0,66,0.00,,,0.01,weatherlink.com 1.10,2013-04-14 19:48:00,
2013-04-14 13:03:00,52.1,40.0,29.94,West,264,5.0,9.0,64,0.00,,,0.01,weatherlink.com 1.10,2013-04-14 20:03:00,
2013-04-14 13:18:00,53.1,40.0,29.93,South,189,6.0,9.0,62,0.00,,,0.01,weatherlink.com 1.10,2013-04-14 20:18:00,
2013-04-14 13:33:00,52.8,42.0,29.93,West,259,8.0,9.0,67,0.00,,,0.01,weatherlink.com 1.10,2013-04-14 20:33:00,
2013-04-14 13:48:00,54.3,41.0,29.93,South,191,4.0,10.0,62,0.00,,,0.01,weatherlink.com 1.10,2013-04-14 20:48:00,
2013-04-14 14:03:00,55.6,43.0,29.92,South,190,3.0,13.0,62,0.00,,,0.01,weatherlink.com 1.10,2013-04-14 21:03:00,
2013-04-14 14:18:00,56.1,40.0,29.92,South,183,4.0,10.0,56,0.00,,,0.01,weatherlink.com 1.10,2013-04-14 21:18:00,
2013-04-14 14:33:00,54.9,41.0,29.92,South,175,4.0,12.0,60,0.00,,,0.01,weatherlink.com 1.10,2013-04-14 21:33:00,
2013-04-14 14:48:00,55.2,39.0,29.92,South,187,7.0,11.0,54,0.00,,,0.01,weatherlink.com 1.10,2013-04-14 21:48:00,
2013-04-14 15:03:00,52.6,39.0,29.92,South,189,4.0,14.0,61,0.00,,,0.01,weatherlink.com 1.10,2013-04-14 22:03:00,
2013-04-14 15:18:00,53.3,41.0,29.91,SSW,196,6.0,9.0,63,0.00,,,0.01,weatherlink.com 1.10,2013-04-14 22:18:00,
2013-04-14 15:33:00,54.3,40.0,29.90,SSW,197,4.0,8.0,58,0.00,,,0.01,weatherlink.com 1.10,2013-04-14 22:33:00,
2013-04-14 15:48:00,55.4,39.0,29.90,South,191,4.0,9.0,54,0.00,,,0.01,weatherlink.com 1.10,2013-04-14 22:48:00,
2013-04-14 16:03:00,56.1,39.0,29.89,SSW,192,2.0,8.0,53,0.00,,,0.01,weatherlink.com 1.10,2013-04-14 23:03:00,
2013-04-14 16:18:00,55.6,38.0,29.89,West,260,5.0,10.0,53,0.00,,,0.01,weatherlink.com 1.10,2013-04-14 23:18:00,
2013-04-14 16:33:00,55.2,39.0,29.89,SW,216,1.0,14.0,55,0.00,,,0.01,weatherlink.com 1.10,2013-04-14 23:33:00,
2013-04-14 16:48:00,55.1,38.0,29.88,WSW,250,3.0,9.0,52,0.00,,,0.01,weatherlink.com 1.10,2013-04-14 23:48:00,
2013-04-14 17:03:00,53.7,37.0,29.88,SW,233,1.0,14.0,53,0.00,,,0.01,weatherlink.com 1.10,2013-04-15 00:03:00,
2013-04-14 17:19:00,51.8,35.0,29.89,WSW,246,2.0,10.0,54,0.00,,,0.01,weatherlink.com 1.10,2013-04-15 00:19:00,
2013-04-14 17:34:00,49.8,36.0,29.88,West,271,5.0,12.0,60,0.00,,,0.01,weatherlink.com 1.10,2013-04-15 00:34:00,
2013-04-14 17:49:00,49.2,37.0,29.88,NW,312,0.0,10.0,64,0.00,,,0.01,weatherlink.com 1.10,2013-04-15 00:49:00,
2013-04-14 18:04:00,47.6,36.0,29.89,West,264,6.0,13.0,64,0.00,,,0.01,weatherlink.com 1.10,2013-04-15 01:04:00,
2013-04-14 18:19:00,46.1,36.0,29.89,WNW,285,8.0,21.0,67,0.00,,,0.01,weatherlink.com 1.10,2013-04-15 01:19:00,
2013-04-14 18:34:00,45.2,36.0,29.90,WNW,294,0.0,8.0,69,0.00,,,0.01,weatherlink.com 1.10,2013-04-15 01:34:00,
2013-04-14 18:49:00,45.3,37.0,29.89,NW,314,1.0,6.0,72,0.00,,,0.01,weatherlink.com 1.10,2013-04-15 01:49:00,
2013-04-14 19:04:00,45.5,37.0,29.91,WSW,250,8.0,16.0,72,0.00,,,0.01,weatherlink.com 1.10,2013-04-15 02:04:00,
2013-04-14 19:19:00,44.4,37.0,29.91,SW,222,0.0,13.0,76,0.00,,,0.01,weatherlink.com 1.10,2013-04-15 02:19:00,
2013-04-14 19:34:00,44.2,37.0,29.91,SW,236,1.0,9.0,77,0.00,,,0.01,weatherlink.com 1.10,2013-04-15 02:34:00,
2013-04-14 19:49:00,44.5,37.0,29.91,SE,144,5.0,8.0,75,0.00,,,0.01,weatherlink.com 1.10,2013-04-15 02:49:00,
2013-04-14 20:04:00,43.9,38.0,29.91,WSW,249,5.0,12.0,80,0.00,,,0.01,weatherlink.com 1.10,2013-04-15 03:04:00,
2013-04-14 20:19:00,43.3,38.0,29.92,WSW,256,5.0,10.0,81,0.00,,,0.01,weatherlink.com 1.10,2013-04-15 03:19:00,
2013-04-14 20:34:00,43.2,38.0,29.92,SW,233,5.0,14.0,83,0.00,,,0.01,weatherlink.com 1.10,2013-04-15 03:34:00,
2013-04-14 20:49:00,43.0,39.0,29.93,SW,214,3.0,10.0,84,0.00,,,0.01,weatherlink.com 1.10,2013-04-15 03:49:00,
2013-04-14 21:04:00,42.6,38.0,29.93,SW,229,2.0,11.0,83,0.00,,,0.01,weatherlink.com 1.10,2013-04-15 04:04:00,
2013-04-14 21:19:00,42.4,38.0,29.93,WSW,250,5.0,8.0,84,0.00,,,0.01,weatherlink.com 1.10,2013-04-15 04:19:00,
2013-04-14 21:34:00,42.3,38.0,29.94,WSW,256,6.0,10.0,85,0.00,,,0.01,weatherlink.com 1.10,2013-04-15 04:34:00,
2013-04-14 21:49:00,42.0,38.0,29.93,South,187,4.0,9.0,85,0.00,,,0.01,weatherlink.com 1.10,2013-04-15 04:49:00,
2013-04-14 22:04:00,41.9,38.0,29.94,WSW,241,4.0,9.0,85,0.00,,,0.01,weatherlink.com 1.10,2013-04-15 05:04:00,
2013-04-14 22:19:00,42.0,38.0,29.93,WSW,255,6.0,9.0,85,0.00,,,0.01,weatherlink.com 1.10,2013-04-15 05:19:00,
2013-04-14 22:34:00,41.9,37.0,29.93,WSW,241,1.0,5.0,83,0.00,,,0.01,weatherlink.com 1.10,2013-04-15 05:34:00,
2013-04-14 22:49:00,41.4,37.0,29.93,South,183,6.0,6.0,85,0.00,,,0.01,weatherlink.com 1.10,2013-04-15 05:49:00,
2013-04-14 23:04:00,41.6,37.0,29.93,SSE,165,2.0,7.0,85,0.00,,,0.01,weatherlink.com 1.10,2013-04-15 06:04:00,
2013-04-14 23:19:00,41.4,38.0,29.93,South,175,6.0,8.0,87,0.00,,,0.01,weatherlink.com 1.10,2013-04-15 06:19:00,
2013-04-14 23:34:00,41.6,37.0,29.93,SSW,204,6.0,9.0,85,0.00,,,0.01,weatherlink.com 1.10,2013-04-15 06:34:00,
2013-04-14 23:49:00,41.6,37.0,29.93,WSW,257,2.0,11.0,85,0.00,,,0.01,weatherlink.com 1.10,2013-04-15 06:49:00,